Greenville, ME

8:14 AM EST on February 21, 2017 (GMT -0500)
Greenville

Weather History for KGNR - August, 2013

Change the Weather History Date:

Saturday, August 17, 2013

  Actual Average (KMLT) Record (KMLT)
Temperature  
Mean Temperature 60 °F -  
Max Temperature 70 °F 77 °F 95 °F (1935)
Min Temperature 52 °F 57 °F 38 °F (1923)
Degree Days  
Heating Degree Days 4    
Growing Degree Days 10 (Base 50)    
Moisture  
Dew Point 51 °F    
Average Humidity 73    
Maximum Humidity 96    
Minimum Humidity 49    
Precipitation  
Precipitation 0.00 in - - ()
Sea Level Pressure  
Sea Level Pressure 30.25 in    
Wind  
Wind Speed 3 mph (NNW)    
Max Wind Speed 12 mph    
Max Gust Speed 16 mph    
Averages and records for this station are not official NWS values.
T = Trace of Precipitation, MM = Missing Value Source: NWS Daily Summary

Daily Weather History Graph

Daily Weather History Graph

Search for Another Location

Airport or City:

Trip Planner

Search our weather history database for the weather conditions in past years. The results will help you decide how hot, cold, wet, or windy it might be!

Date:

Astronomy

Aug. 17, 2013 Rise Set
Actual Time 5:41 AM EDT 7:42 PM EDT
Civil Twilight 5:09 AM EDT 8:13 PM EDT
Nautical Twilight 4:30 AM EDT 8:53 PM EDT
Astronomical Twilight 3:46 AM EDT 9:36 PM EDT
Moon 4:59 PM EDT (8/17) 1:35 AM EDT (8/17)
Length of Visible Light 15h 04m
Length of Day
14h 00m
Waxing Gibbous, 84% of the Moon is Illuminated
Aug 17
Waxing Gibbous
Aug 20
Full
Aug 28
Last Quarter
Sep 5
New
Sep 12
First Quarter

Hourly Weather History & Observations

Time (EDT) Temp. Dew Point Humidity Pressure Visibility Wind Dir Wind Speed Gust Speed Precip Events Conditions
12:56 AM 55.9 °F 54.0 °F 93% 30.20 in - Calm Calm - N/A   Unknown
1:56 AM 54.0 °F 52.0 °F 93% 30.20 in - Calm Calm - N/A   Unknown
2:56 AM 54.0 °F 52.0 °F 93% 30.22 in - Calm Calm - N/A   Unknown
3:56 AM 53.1 °F 51.1 °F 93% 30.22 in - Calm Calm - N/A   Unknown
4:56 AM 52.0 °F 50.0 °F 93% 30.23 in - Calm Calm - N/A   Unknown
5:56 AM 53.1 °F 52.0 °F 96% 30.24 in - NW 5.8 mph - N/A   Unknown
6:56 AM 55.9 °F 53.1 °F 90% 30.25 in - NNW 5.8 mph - N/A   Unknown
7:56 AM 57.9 °F 54.0 °F 87% 30.26 in - NNW 6.9 mph - N/A   Unknown
8:56 AM 59.0 °F 53.1 °F 81% 30.27 in - NNW 10.4 mph - N/A   Unknown
9:56 AM 62.1 °F 54.0 °F 75% 30.27 in - NNW 10.4 mph - N/A   Unknown
10:56 AM 64.0 °F 51.1 °F 63% 30.27 in - NW 11.5 mph 16.1 mph N/A   Unknown
11:56 AM 64.9 °F 50.0 °F 58% 30.27 in - NNW 10.4 mph 16.1 mph N/A   Unknown
12:56 PM 66.9 °F 50.0 °F 54% 30.25 in - Variable 4.6 mph - N/A   Unknown
1:56 PM 68.0 °F 48.9 °F 50% 30.26 in - NNW 8.1 mph - N/A   Unknown
2:56 PM 69.1 °F 48.9 °F 49% 30.25 in - North 5.8 mph - N/A   Unknown
3:56 PM 69.1 °F 48.9 °F 49% 30.25 in - Variable 4.6 mph - N/A   Unknown
4:56 PM 69.1 °F 48.9 °F 49% 30.25 in - NNW 4.6 mph - N/A   Unknown
5:56 PM 68.0 °F 50.0 °F 52% 30.25 in - North 4.6 mph - N/A   Unknown
6:56 PM 64.9 °F 51.1 °F 61% 30.25 in - North 3.5 mph - N/A   Unknown
7:56 PM 61.0 °F 51.1 °F 70% 30.25 in - Calm Calm - N/A   Unknown
8:56 PM 57.0 °F 50.0 °F 77% 30.27 in - NW 3.5 mph - N/A   Unknown
9:56 PM 55.9 °F 48.9 °F 77% 30.27 in - Calm Calm - N/A   Unknown
10:56 PM 55.9 °F 48.9 °F 77% 30.27 in - Calm Calm - N/A   Unknown
11:56 PM 55.0 °F 48.9 °F 80% 30.27 in - Calm Calm - N/A   Unknown